owner,sensor,date,latitude,longitude,vertical_datum,direction_of_sea_water_velocity,sea_water_speed,upward_sea_water_velocity,qcFlag 
TABS,ioos:station:TABS:G:1,1997-04-01T00:00:00Z,29.5500,-93.4666,2.0,267.4801534,54.14233556,-99999.0,'11111222,11111222,99999999' 
TABS,ioos:station:TABS:G:1,1997-04-01T00:30:00Z,29.5500,-93.4666,2.0,265.6598798,49.16094792,-99999.0,'11111222,11111222,99999999' 
TABS,ioos:station:TABS:G:1,1997-04-01T01:00:00Z,29.5500,-93.4666,2.0,261.9832527,42.73761809,-99999.0,'11111222,11111222,99999999' 
TABS,ioos:station:TABS:G:1,1997-04-01T01:30:00Z,29.5500,-93.4666,2.0,261.2998078,40.39476451,-99999.0,'11111222,11111222,99999999' 
TABS,ioos:station:TABS:G:1,1997-04-01T02:00:00Z,29.5500,-93.4666,2.0,266.501928,31.7992327,-99999.0,'11111222,11111222,99999999' 
TABS,ioos:station:TABS:G:1,1997-04-01T02:30:00Z,29.5500,-93.4666,2.0,267.8108318,42.94132858,-99999.0,'11111222,11111222,99999999' 
TABS,ioos:station:TABS:G:1,1997-04-01T03:00:00Z,29.5500,-93.4666,2.0,265.1970022,42.76012746,-99999.0,'11111222,11111222,99999999' 
TABS,ioos:station:TABS:G:1,1997-04-01T03:30:00Z,29.5500,-93.4666,2.0,265.8098891,40.78900342,-99999.0,'11111222,11111222,99999999' 
TABS,ioos:station:TABS:G:1,1997-04-01T04:00:00Z,29.5500,-93.4666,2.0,256.9345812,48.79305073,-99999.0,'11111222,11111222,99999999' 
TABS,ioos:station:TABS:G:1,1997-04-01T04:30:00Z,29.5500,-93.4666,2.0,253.3780745,41.67122868,-99999.0,'11111222,11111222,99999999' 
TABS,ioos:station:TABS:G:1,1997-04-01T05:00:00Z,29.5500,-93.4666,2.0,247.260913,38.93623762,-99999.0,'11111222,11111222,99999999' 
TABS,ioos:station:TABS:G:1,1997-04-01T05:30:00Z,29.5500,-93.4666,2.0,251.4975727,43.20306702,-99999.0,'11111222,11111222,99999999' 
TABS,ioos:station:TABS:G:1,1997-04-01T06:00:00Z,29.5500,-93.4666,2.0,247.6860245,45.90757889,-99999.0,'11111222,11111222,99999999' 
TABS,ioos:station:TABS:G:1,1997-04-01T06:30:00Z,29.5500,-93.4666,2.0,240.9969561,43.9516746,-99999.0,'11111222,11111222,99999999' 
TABS,ioos:station:TABS:G:1,1997-04-01T07:00:00Z,29.5500,-93.4666,2.0,238.1382293,37.54736342,-99999.0,'11111222,11111222,99999999' 
TABS,ioos:station:TABS:G:1,1997-04-01T07:30:00Z,29.5500,-93.4666,2.0,238.4148094,28.16172225,-99999.0,'11111222,11111222,99999999' 
TABS,ioos:station:TABS:G:1,1997-04-01T08:00:00Z,29.5500,-93.4666,2.0,245.293963,22.46642384,-99999.0,'11111222,11111222,99999999' 
TABS,ioos:station:TABS:G:1,1997-04-01T08:30:00Z,29.5500,-93.4666,2.0,254.8840647,19.44267986,-99999.0,'11111222,11111222,99999999' 
TABS,ioos:station:TABS:G:1,1997-04-01T09:00:00Z,29.5500,-93.4666,2.0,271.7658237,14.60693329,-99999.0,'11111222,11111222,99999999' 
TABS,ioos:station:TABS:G:1,1997-04-01T09:30:00Z,29.5500,-93.4666,2.0,269.1756333,10.43107856,-99999.0,'11111222,11111222,99999999' 
TABS,ioos:station:TABS:G:1,1997-04-01T10:00:00Z,29.5500,-93.4666,2.0,261.3666075,6.928499116,-99999.0,'11133222,11111222,99999999' 
TABS,ioos:station:TABS:G:1,1997-04-01T10:30:00Z,29.5500,-93.4666,2.0,270.0004209,8.79,-99999.0,'11133222,11111222,99999999' 
TABS,ioos:station:TABS:G:1,1997-04-01T11:00:00Z,29.5500,-93.4666,2.0,271.189779,14.45311385,-99999.0,'11111222,11111222,99999999' 
TABS,ioos:station:TABS:G:1,1997-04-01T11:30:00Z,29.5500,-93.4666,2.0,284.0366316,19.04874799,-99999.0,'11111222,11111222,99999999' 
TABS,ioos:station:TABS:G:1,1997-04-01T12:00:00Z,29.5500,-93.4666,2.0,273.5249046,14.47738236,-99999.0,'11111222,11111222,99999999' 
TABS,ioos:station:TABS:G:1,1997-04-01T12:30:00Z,29.5500,-93.4666,2.0,295.4566004,17.33277243,-99999.0,'11111222,11111222,99999999' 
TABS,ioos:station:TABS:G:1,1997-04-01T13:00:00Z,29.5500,-93.4666,2.0,291.1932514,18.53344005,-99999.0,'11111222,11111222,99999999' 
TABS,ioos:station:TABS:G:1,1997-04-01T13:30:00Z,29.5500,-93.4666,2.0,296.56541,23.9930094,-99999.0,'11111222,11111222,99999999' 
TABS,ioos:station:TABS:G:1,1997-04-01T14:00:00Z,29.5500,-93.4666,2.0,298.2556107,20.46892767,-99999.0,'11111222,11111222,99999999' 
TABS,ioos:station:TABS:G:1,1997-04-01T14:30:00Z,29.5500,-93.4666,2.0,289.2645838,19.88332216,-99999.0,'11111222,11111222,99999999' 
TABS,ioos:station:TABS:G:1,1997-04-01T15:00:00Z,29.5500,-93.4666,2.0,292.4971385,17.90234901,-99999.0,'11111222,11111222,99999999' 
TABS,ioos:station:TABS:G:1,1997-04-01T15:30:00Z,29.5500,-93.4666,2.0,279.702428,17.68290983,-99999.0,'11111222,11111222,99999999' 
TABS,ioos:station:TABS:G:1,1997-04-01T16:00:00Z,29.5500,-93.4666,2.0,284.5108364,21.39237481,-99999.0,'11111222,11111222,99999999' 
TABS,ioos:station:TABS:G:1,1997-04-01T16:30:00Z,29.5500,-93.4666,2.0,279.889076,22.5347931,-99999.0,'11111222,11111222,99999999' 
TABS,ioos:station:TABS:G:1,1997-04-01T17:00:00Z,29.5500,-93.4666,2.0,280.4814583,18.03084302,-99999.0,'11111222,11111222,99999999' 
TABS,ioos:station:TABS:G:1,1997-04-01T17:30:00Z,29.5500,-93.4666,2.0,270.0004209,18.03,-99999.0,'11111222,11111222,99999999' 
TABS,ioos:station:TABS:G:1,1997-04-01T18:00:00Z,29.5500,-93.4666,2.0,270.9304633,18.4824349,-99999.0,'11111222,11111222,99999999' 
TABS,ioos:station:TABS:G:1,1997-04-01T18:30:00Z,29.5500,-93.4666,2.0,261.2746286,22.61166513,-99999.0,'11111222,11111222,99999999' 
TABS,ioos:station:TABS:G:1,1997-04-01T19:00:00Z,29.5500,-93.4666,2.0,258.6152752,24.16545054,-99999.0,'11111222,11111222,99999999' 
TABS,ioos:station:TABS:G:1,1997-04-01T19:30:00Z,29.5500,-93.4666,2.0,259.1463237,22.14613736,-99999.0,'11111222,11111222,99999999' 
TABS,ioos:station:TABS:G:1,1997-04-01T20:00:00Z,29.5500,-93.4666,2.0,265.6511417,23.6079584,-99999.0,'11111222,11111222,99999999' 
TABS,ioos:station:TABS:G:1,1997-04-01T20:30:00Z,29.5500,-93.4666,2.0,263.9614264,22.62552541,-99999.0,'11111222,11111222,99999999' 
TABS,ioos:station:TABS:G:1,1997-04-01T21:00:00Z,29.5500,-93.4666,2.0,253.3820066,20.84040547,-99999.0,'11111222,11111222,99999999' 
TABS,ioos:station:TABS:G:1,1997-04-01T21:30:00Z,29.5500,-93.4666,2.0,252.0242543,23.65459786,-99999.0,'11111222,11111222,99999999' 
TABS,ioos:station:TABS:G:1,1997-04-01T22:00:00Z,29.5500,-93.4666,2.0,264.7978898,21.39812375,-99999.0,'11111222,11111222,99999999' 
TABS,ioos:station:TABS:G:1,1997-04-01T22:30:00Z,29.5500,-93.4666,2.0,276.5287018,24.89140012,-99999.0,'11111222,11111222,99999999' 
TABS,ioos:station:TABS:G:1,1997-04-01T23:00:00Z,29.5500,-93.4666,2.0,268.4154794,27.13036859,-99999.0,'11111222,11111222,99999999' 
TABS,ioos:station:TABS:G:1,1997-04-01T23:30:00Z,29.5500,-93.4666,2.0,270.3337898,25.78043638,-99999.0,'11111222,11111222,99999999' 
TABS,ioos:station:TABS:G:1,1997-04-02T00:00:00Z,29.5500,-93.4666,2.0,265.1123374,26.17516571,-99999.0,'11111222,11111222,99999999' 
TABS,ioos:station:TABS:G:1,1997-04-02T00:30:00Z,29.5500,-93.4666,2.0,266.7717693,31.7904341,-99999.0,'11111222,11111222,99999999' 
TABS,ioos:station:TABS:G:1,1997-04-02T01:00:00Z,29.5500,-93.4666,2.0,263.9599749,25.47138198,-99999.0,'11111222,11111222,99999999' 
TABS,ioos:station:TABS:G:1,1997-04-02T01:30:00Z,29.5500,-93.4666,2.0,256.467078,24.82933144,-99999.0,'11111222,11111222,99999999' 
TABS,ioos:station:TABS:G:1,1997-04-02T02:00:00Z,29.5500,-93.4666,2.0,261.087047,32.7251249,-99999.0,'11111222,11111222,99999999' 
TABS,ioos:station:TABS:G:1,1997-04-02T02:30:00Z,29.5500,-93.4666,2.0,260.6825148,28.5364679,-99999.0,'11111222,11111222,99999999' 
TABS,ioos:station:TABS:G:1,1997-04-02T03:00:00Z,29.5500,-93.4666,2.0,266.4853615,31.64951342,-99999.0,'11111222,11111222,99999999' 
TABS,ioos:station:TABS:G:1,1997-04-02T03:30:00Z,29.5500,-93.4666,2.0,258.7533083,28.25250785,-99999.0,'11111222,11111222,99999999' 
TABS,ioos:station:TABS:G:1,1997-04-02T04:00:00Z,29.5500,-93.4666,2.0,253.9813438,32.39788882,-99999.0,'11111222,11111222,99999999' 
TABS,ioos:station:TABS:G:1,1997-04-02T04:30:00Z,29.5500,-93.4666,2.0,254.8828714,30.86814701,-99999.0,'11111222,11111222,99999999' 
TABS,ioos:station:TABS:G:1,1997-04-02T05:00:00Z,29.5500,-93.4666,2.0,254.6897103,29.35163709,-99999.0,'11111222,11111222,99999999' 
TABS,ioos:station:TABS:G:1,1997-04-02T05:30:00Z,29.5500,-93.4666,2.0,254.7159916,29.96995329,-99999.0,'11111222,11111222,99999999' 
TABS,ioos:station:TABS:G:1,1997-04-02T06:00:00Z,29.5500,-93.4666,2.0,251.7428194,29.4947063,-99999.0,'11111222,11111222,99999999' 
TABS,ioos:station:TABS:G:1,1997-04-02T06:30:00Z,29.5500,-93.4666,2.0,250.7252368,29.35541177,-99999.0,'11111222,11111222,99999999' 
TABS,ioos:station:TABS:G:1,1997-04-02T07:00:00Z,29.5500,-93.4666,2.0,251.3737544,27.52145527,-99999.0,'11111222,11111222,99999999' 
TABS,ioos:station:TABS:G:1,1997-04-02T07:30:00Z,29.5500,-93.4666,2.0,247.7913759,27.1976249,-99999.0,'11111222,11111222,99999999' 
TABS,ioos:station:TABS:G:1,1997-04-02T08:00:00Z,29.5500,-93.4666,2.0,254.2236742,27.40217875,-99999.0,'11111222,11111222,99999999' 
TABS,ioos:station:TABS:G:1,1997-04-02T08:30:00Z,29.5500,-93.4666,2.0,251.0970647,29.4481103,-99999.0,'11111222,11111222,99999999' 
TABS,ioos:station:TABS:G:1,1997-04-02T09:00:00Z,29.5500,-93.4666,2.0,257.1657991,27.50717179,-99999.0,'11111222,11111222,99999999' 
TABS,ioos:station:TABS:G:1,1997-04-02T09:30:00Z,29.5500,-93.4666,2.0,259.4960624,29.40268185,-99999.0,'11111222,11111222,99999999' 
TABS,ioos:station:TABS:G:1,1997-04-02T10:00:00Z,29.5500,-93.4666,2.0,264.7250174,25.88962727,-99999.0,'11111222,11111222,99999999' 
TABS,ioos:station:TABS:G:1,1997-04-02T10:30:00Z,29.5500,-93.4666,2.0,264.9715487,22.13517788,-99999.0,'11111222,11111222,99999999' 
TABS,ioos:station:TABS:G:1,1997-04-02T11:00:00Z,29.5500,-93.4666,2.0,254.5416315,21.79853665,-99999.0,'11111222,11111222,99999999' 
TABS,ioos:station:TABS:G:1,1997-04-02T11:30:00Z,29.5500,-93.4666,2.0,276.656938,27.002024,-99999.0,'11111222,11111222,99999999' 
TABS,ioos:station:TABS:G:1,1997-04-02T12:00:00Z,29.5500,-93.4666,2.0,274.1140504,29.13505964,-99999.0,'11111222,11111222,99999999' 
TABS,ioos:station:TABS:G:1,1997-04-02T12:30:00Z,29.5500,-93.4666,2.0,280.4582622,25.45280535,-99999.0,'11111222,11111222,99999999' 
TABS,ioos:station:TABS:G:1,1997-04-02T13:00:00Z,29.5500,-93.4666,2.0,274.7836795,33.93819824,-99999.0,'11111222,11111222,99999999' 
TABS,ioos:station:TABS:G:1,1997-04-02T13:30:00Z,29.5500,-93.4666,2.0,273.1346817,29.99486789,-99999.0,'11111222,11111222,99999999' 
TABS,ioos:station:TABS:G:1,1997-04-02T14:00:00Z,29.5500,-93.4666,2.0,273.6753642,34.79154064,-99999.0,'11111222,11111222,99999999' 
TABS,ioos:station:TABS:G:1,1997-04-02T14:30:00Z,29.5500,-93.4666,2.0,270.2817393,30.55036825,-99999.0,'11111222,11111222,99999999' 
TABS,ioos:station:TABS:G:1,1997-04-02T15:00:00Z,29.5500,-93.4666,2.0,277.0050518,35.42439837,-99999.0,'11111222,11111222,99999999' 
TABS,ioos:station:TABS:G:1,1997-04-02T15:30:00Z,29.5500,-93.4666,2.0,279.1532548,36.52505578,-99999.0,'11111222,11111222,99999999' 
TABS,ioos:station:TABS:G:1,1997-04-02T16:00:00Z,29.5500,-93.4666,2.0,275.4339918,36.22276218,-99999.0,'11111222,11111222,99999999' 
TABS,ioos:station:TABS:G:1,1997-04-02T16:30:00Z,29.5500,-93.4666,2.0,271.6192148,36.81469272,-99999.0,'11111222,11111222,99999999' 
TABS,ioos:station:TABS:G:1,1997-04-02T17:00:00Z,29.5500,-93.4666,2.0,271.8905231,36.07962999,-99999.0,'11111222,11111222,99999999' 
TABS,ioos:station:TABS:G:1,1997-04-02T17:30:00Z,29.5500,-93.4666,2.0,271.4504277,35.17126242,-99999.0,'11111222,11111222,99999999' 
TABS,ioos:station:TABS:G:1,1997-04-02T18:00:00Z,29.5500,-93.4666,2.0,269.7385925,32.93034163,-99999.0,'11111222,11111222,99999999' 
TABS,ioos:station:TABS:G:1,1997-04-02T18:30:00Z,29.5500,-93.4666,2.0,265.1732096,31.85294335,-99999.0,'11111222,11111222,99999999' 
TABS,ioos:station:TABS:G:1,1997-04-02T19:00:00Z,29.5500,-93.4666,2.0,263.5587628,35.83618981,-99999.0,'11111222,11111222,99999999' 
TABS,ioos:station:TABS:G:1,1997-04-02T19:30:00Z,29.5500,-93.4666,2.0,264.1063938,33.40655325,-99999.0,'11111222,11111222,99999999' 
TABS,ioos:station:TABS:G:1,1997-04-02T20:00:00Z,29.5500,-93.4666,2.0,269.4528815,31.44143127,-99999.0,'11111222,11111222,99999999' 
TABS,ioos:station:TABS:G:1,1997-04-02T20:30:00Z,29.5500,-93.4666,2.0,264.1828745,33.84425801,-99999.0,'11111222,11111222,99999999' 
TABS,ioos:station:TABS:G:1,1997-04-02T21:00:00Z,29.5500,-93.4666,2.0,267.1219336,35.65496038,-99999.0,'11111222,11111222,99999999' 
TABS,ioos:station:TABS:G:1,1997-04-02T21:30:00Z,29.5500,-93.4666,2.0,264.3939721,32.04323642,-99999.0,'11111222,11111222,99999999' 
TABS,ioos:station:TABS:G:1,1997-04-02T22:00:00Z,29.5500,-93.4666,2.0,262.3182644,32.32001392,-99999.0,'11111222,11111222,99999999' 
TABS,ioos:station:TABS:G:1,1997-04-02T22:30:00Z,29.5500,-93.4666,2.0,260.0694878,32.82170776,-99999.0,'11111222,11111222,99999999' 
TABS,ioos:station:TABS:G:1,1997-04-02T23:00:00Z,29.5500,-93.4666,2.0,261.8694957,31.60767312,-99999.0,'11111222,11111222,99999999' 
TABS,ioos:station:TABS:G:1,1997-04-02T23:30:00Z,29.5500,-93.4666,2.0,265.2245504,50.09386489,-99999.0,'11111222,11111222,99999999' 
TABS,ioos:station:TABS:G:1,1997-04-03T00:00:00Z,29.5500,-93.4666,2.0,272.0601963,49.80217867,-99999.0,'11111222,11111222,99999999' 
TABS,ioos:station:TABS:G:1,1997-04-03T00:30:00Z,29.5500,-93.4666,2.0,271.9617439,43.53550505,-99999.0,'11111222,11111222,99999999' 
TABS,ioos:station:TABS:G:1,1997-04-03T01:00:00Z,29.5500,-93.4666,2.0,273.6395111,39.86037255,-99999.0,'11111222,11111222,99999999' 
TABS,ioos:station:TABS:G:1,1997-04-03T01:30:00Z,29.5500,-93.4666,2.0,268.9153852,39.63709626,-99999.0,'11111222,11111222,99999999' 
TABS,ioos:station:TABS:G:1,1997-04-03T02:00:00Z,29.5500,-93.4666,2.0,264.8859496,41.73611506,-99999.0,'11111222,11111222,99999999' 
TABS,ioos:station:TABS:G:1,1997-04-03T02:30:00Z,29.5500,-93.4666,2.0,269.0693353,46.19608858,-99999.0,'11111222,11111222,99999999' 
TABS,ioos:station:TABS:G:1,1997-04-03T03:00:00Z,29.5500,-93.4666,2.0,272.2859238,44.88570597,-99999.0,'11111222,11111222,99999999' 
TABS,ioos:station:TABS:G:1,1997-04-03T03:30:00Z,29.5500,-93.4666,2.0,268.4436545,43.82615886,-99999.0,'11111222,11111222,99999999' 
TABS,ioos:station:TABS:G:1,1997-04-03T04:00:00Z,29.5500,-93.4666,2.0,272.477217,44.89193803,-99999.0,'11111222,11111222,99999999' 
TABS,ioos:station:TABS:G:1,1997-04-03T04:30:00Z,29.5500,-93.4666,2.0,280.5609554,42.28625545,-99999.0,'11111222,11111222,99999999' 
TABS,ioos:station:TABS:G:1,1997-04-03T05:00:00Z,29.5500,-93.4666,2.0,281.3974579,39.97832037,-99999.0,'11111222,11111222,99999999' 
TABS,ioos:station:TABS:G:1,1997-04-03T05:30:00Z,29.5500,-93.4666,2.0,276.9818733,28.21923103,-99999.0,'11111222,11111222,99999999' 
TABS,ioos:station:TABS:G:1,1997-04-03T06:00:00Z,29.5500,-93.4666,2.0,270.0004209,27.71,-99999.0,'11111222,11111222,99999999' 
TABS,ioos:station:TABS:G:1,1997-04-03T06:30:00Z,29.5500,-93.4666,2.0,270.0004209,26.82,-99999.0,'11111222,11111222,99999999' 
TABS,ioos:station:TABS:G:1,1997-04-03T07:00:00Z,29.5500,-93.4666,2.0,256.2020311,25.61926033,-99999.0,'11111222,11111222,99999999' 
TABS,ioos:station:TABS:G:1,1997-04-03T07:30:00Z,29.5500,-93.4666,2.0,255.5024878,22.01082007,-99999.0,'11111222,11111222,99999999' 
TABS,ioos:station:TABS:G:1,1997-04-03T08:00:00Z,29.5500,-93.4666,2.0,263.7438259,31.47743636,-99999.0,'11111222,11111222,99999999' 
TABS,ioos:station:TABS:G:1,1997-04-03T08:30:00Z,29.5500,-93.4666,2.0,251.8535565,28.22368686,-99999.0,'11111222,11111222,99999999' 
TABS,ioos:station:TABS:G:1,1997-04-03T09:00:00Z,29.5500,-93.4666,2.0,250.8157533,29.03218903,-99999.0,'11111222,11111222,99999999' 
TABS,ioos:station:TABS:G:1,1997-04-03T09:30:00Z,29.5500,-93.4666,2.0,248.4604492,31.2417109,-99999.0,'11111222,11111222,99999999' 
TABS,ioos:station:TABS:G:1,1997-04-03T10:00:00Z,29.5500,-93.4666,2.0,256.7951377,34.58437364,-99999.0,'11111222,11111222,99999999' 
TABS,ioos:station:TABS:G:1,1997-04-03T10:30:00Z,29.5500,-93.4666,2.0,255.388773,36.03532989,-99999.0,'11111222,11111222,99999999' 
TABS,ioos:station:TABS:G:1,1997-04-03T11:00:00Z,29.5500,-93.4666,2.0,261.0540418,29.71139344,-99999.0,'11111222,11111222,99999999' 
TABS,ioos:station:TABS:G:1,1997-04-03T11:30:00Z,29.5500,-93.4666,2.0,249.0782259,30.4687709,-99999.0,'11111222,11111222,99999999' 
TABS,ioos:station:TABS:G:1,1997-04-03T12:00:00Z,29.5500,-93.4666,2.0,264.4288461,38.32098642,-99999.0,'11111222,11111222,99999999' 
TABS,ioos:station:TABS:G:1,1997-04-03T12:30:00Z,29.5500,-93.4666,2.0,264.7554564,40.70035995,-99999.0,'11111222,11111222,99999999' 
TABS,ioos:station:TABS:G:1,1997-04-03T13:00:00Z,29.5500,-93.4666,2.0,266.8390397,37.90765886,-99999.0,'11111222,11111222,99999999' 
TABS,ioos:station:TABS:G:1,1997-04-03T13:30:00Z,29.5500,-93.4666,2.0,266.1453647,39.87017432,-99999.0,'11111222,11111222,99999999' 
TABS,ioos:station:TABS:G:1,1997-04-03T14:00:00Z,29.5500,-93.4666,2.0,273.6801015,39.42126964,-99999.0,'11111222,11111222,99999999' 
TABS,ioos:station:TABS:G:1,1997-04-03T14:30:00Z,29.5500,-93.4666,2.0,268.9032155,39.19717592,-99999.0,'11111222,11111222,99999999' 
TABS,ioos:station:TABS:G:1,1997-04-03T15:00:00Z,29.5500,-93.4666,2.0,271.5990378,31.90241684,-99999.0,'11111222,11111222,99999999' 
TABS,ioos:station:TABS:G:1,1997-04-03T15:30:00Z,29.5500,-93.4666,2.0,261.9300691,36.11762035,-99999.0,'11111222,11111222,99999999' 
TABS,ioos:station:TABS:G:1,1997-04-03T16:00:00Z,29.5500,-93.4666,2.0,263.1149161,29.86534614,-99999.0,'11111222,11111222,99999999' 
TABS,ioos:station:TABS:G:1,1997-04-03T16:30:00Z,29.5500,-93.4666,2.0,269.2786149,35.76283126,-99999.0,'11111222,11111222,99999999' 
TABS,ioos:station:TABS:G:1,1997-04-03T17:00:00Z,29.5500,-93.4666,2.0,270.0004209,23.39,-99999.0,'11111222,11111222,99999999' 
TABS,ioos:station:TABS:G:1,1997-04-03T17:30:00Z,29.5500,-93.4666,2.0,272.5463059,23.41310958,-99999.0,'11111222,11111222,99999999' 
TABS,ioos:station:TABS:G:1,1997-04-03T18:00:00Z,29.5500,-93.4666,2.0,297.8685933,23.59662052,-99999.0,'11111222,11111222,99999999' 
TABS,ioos:station:TABS:G:1,1997-04-03T18:30:00Z,29.5500,-93.4666,2.0,284.649263,33.57127492,-99999.0,'11111222,11111222,99999999' 
TABS,ioos:station:TABS:G:1,1997-04-03T19:00:00Z,29.5500,-93.4666,2.0,284.0870651,44.08571764,-99999.0,'11111222,11111222,99999999' 
TABS,ioos:station:TABS:G:1,1997-04-03T19:30:00Z,29.5500,-93.4666,2.0,278.6611125,34.66527513,-99999.0,'11111222,11111222,99999999' 
TABS,ioos:station:TABS:G:1,1997-04-03T20:00:00Z,29.5500,-93.4666,2.0,280.6387495,45.17649389,-99999.0,'11111222,11111222,99999999' 
TABS,ioos:station:TABS:G:1,1997-04-03T20:30:00Z,29.5500,-93.4666,2.0,275.8788968,30.56070843,-99999.0,'11111222,11111222,99999999' 
TABS,ioos:station:TABS:G:1,1997-04-03T21:00:00Z,29.5500,-93.4666,2.0,273.0279032,45.06289383,-99999.0,'11111222,11111222,99999999' 
TABS,ioos:station:TABS:G:1,1997-04-03T21:30:00Z,29.5500,-93.4666,2.0,273.0666832,47.29771453,-99999.0,'11111222,11111222,99999999' 
TABS,ioos:station:TABS:G:1,1997-04-03T22:00:00Z,29.5500,-93.4666,2.0,268.288245,44.87001337,-99999.0,'11111222,11111222,99999999' 
TABS,ioos:station:TABS:G:1,1997-04-03T22:30:00Z,29.5500,-93.4666,2.0,263.2770597,36.90372474,-99999.0,'11111222,11111222,99999999' 
TABS,ioos:station:TABS:G:1,1997-04-03T23:00:00Z,29.5500,-93.4666,2.0,252.1406274,33.03165906,-99999.0,'11111222,11111222,99999999' 
TABS,ioos:station:TABS:G:1,1997-04-03T23:30:00Z,29.5500,-93.4666,2.0,274.7342857,41.56177691,-99999.0,'11111222,11111222,99999999' 
TABS,ioos:station:TABS:G:1,1997-04-04T00:00:00Z,29.5500,-93.4666,2.0,254.3924368,27.69099854,-99999.0,'11111222,11111222,99999999' 
TABS,ioos:station:TABS:G:1,1997-04-04T00:30:00Z,29.5500,-93.4666,2.0,270.0004209,37.1,-99999.0,'11111222,11111222,99999999' 
TABS,ioos:station:TABS:G:1,1997-04-04T01:00:00Z,29.5500,-93.4666,2.0,268.2230096,33.54612496,-99999.0,'11111222,11111222,99999999' 
TABS,ioos:station:TABS:G:1,1997-04-04T01:30:00Z,29.5500,-93.4666,2.0,267.789381,34.74584867,-99999.0,'11111222,11111222,99999999' 
TABS,ioos:station:TABS:G:1,1997-04-04T02:00:00Z,29.5500,-93.4666,2.0,277.1700164,28.68428141,-99999.0,'11111222,11111222,99999999' 
TABS,ioos:station:TABS:G:1,1997-04-04T02:30:00Z,29.5500,-93.4666,2.0,282.6654551,34.66341587,-99999.0,'11111222,11111222,99999999' 
TABS,ioos:station:TABS:G:1,1997-04-04T03:00:00Z,29.5500,-93.4666,2.0,283.8063448,36.20601055,-99999.0,'11111222,11111222,99999999' 
TABS,ioos:station:TABS:G:1,1997-04-04T03:30:00Z,29.5500,-93.4666,2.0,279.5810894,35.80946383,-99999.0,'11111222,11111222,99999999' 
TABS,ioos:station:TABS:G:1,1997-04-04T04:00:00Z,29.5500,-93.4666,2.0,284.4236837,37.69817237,-99999.0,'11111222,11111222,99999999' 
TABS,ioos:station:TABS:G:1,1997-04-04T04:30:00Z,29.5500,-93.4666,2.0,290.6987823,44.27797308,-99999.0,'11111222,11111222,99999999' 
TABS,ioos:station:TABS:G:1,1997-04-04T05:00:00Z,29.5500,-93.4666,2.0,289.2674954,42.45805577,-99999.0,'11111222,11111222,99999999' 
TABS,ioos:station:TABS:G:1,1997-04-04T05:30:00Z,29.5500,-93.4666,2.0,282.5962902,41.68321605,-99999.0,'11111222,11111222,99999999' 
TABS,ioos:station:TABS:G:1,1997-04-04T06:00:00Z,29.5500,-93.4666,2.0,275.1236726,40.09016463,-99999.0,'11111222,11111222,99999999' 
TABS,ioos:station:TABS:G:1,1997-04-04T06:30:00Z,29.5500,-93.4666,2.0,274.1435056,43.32321549,-99999.0,'11111222,11111222,99999999' 
TABS,ioos:station:TABS:G:1,1997-04-04T07:00:00Z,29.5500,-93.4666,2.0,267.4374449,36.68667469,-99999.0,'11111222,11111222,99999999' 
TABS,ioos:station:TABS:G:1,1997-04-04T07:30:00Z,29.5500,-93.4666,2.0,262.3168141,30.06992517,-99999.0,'11111222,11111222,99999999' 
TABS,ioos:station:TABS:G:1,1997-04-04T08:00:00Z,29.5500,-93.4666,2.0,262.0914644,32.48897198,-99999.0,'11111222,11111222,99999999' 
TABS,ioos:station:TABS:G:1,1997-04-04T08:30:00Z,29.5500,-93.4666,2.0,252.6080024,30.91322694,-99999.0,'11111222,11111222,99999999' 
TABS,ioos:station:TABS:G:1,1997-04-04T09:00:00Z,29.5500,-93.4666,2.0,256.4967493,31.26419678,-99999.0,'11111222,11111222,99999999' 
TABS,ioos:station:TABS:G:1,1997-04-04T09:30:00Z,29.5500,-93.4666,2.0,257.9136042,31.9992828,-99999.0,'11111222,11111222,99999999' 
TABS,ioos:station:TABS:G:1,1997-04-04T10:00:00Z,29.5500,-93.4666,2.0,250.1349624,28.51681083,-99999.0,'11111222,11111222,99999999' 
TABS,ioos:station:TABS:G:1,1997-04-04T10:30:00Z,29.5500,-93.4666,2.0,252.0199771,29.44805936,-99999.0,'11111222,11111222,99999999' 
TABS,ioos:station:TABS:G:1,1997-04-04T11:00:00Z,29.5500,-93.4666,2.0,259.3348867,25.77521678,-99999.0,'11111222,11111222,99999999' 
TABS,ioos:station:TABS:G:1,1997-04-04T11:30:00Z,29.5500,-93.4666,2.0,272.7103787,28.34169543,-99999.0,'11111222,11111222,99999999' 
TABS,ioos:station:TABS:G:1,1997-04-04T12:00:00Z,29.5500,-93.4666,2.0,278.8348664,29.1053002,-99999.0,'11111222,11111222,99999999' 
TABS,ioos:station:TABS:G:1,1997-04-04T12:30:00Z,29.5500,-93.4666,2.0,282.5984885,28.70100521,-99999.0,'11111222,11111222,99999999' 
TABS,ioos:station:TABS:G:1,1997-04-04T13:00:00Z,29.5500,-93.4666,2.0,286.5003549,27.81544355,-99999.0,'11111222,11111222,99999999' 
TABS,ioos:station:TABS:G:1,1997-04-04T13:30:00Z,29.5500,-93.4666,2.0,294.2072913,27.60751347,-99999.0,'11111222,11111222,99999999' 
TABS,ioos:station:TABS:G:1,1997-04-04T14:00:00Z,29.5500,-93.4666,2.0,291.359652,28.6369307,-99999.0,'11111222,11111222,99999999' 
TABS,ioos:station:TABS:G:1,1997-04-04T14:30:00Z,29.5500,-93.4666,2.0,288.3024289,21.81344998,-99999.0,'11111222,11111222,99999999' 
TABS,ioos:station:TABS:G:1,1997-04-04T15:00:00Z,29.5500,-93.4666,2.0,284.3490884,20.45818418,-99999.0,'11111222,11111222,99999999' 
TABS,ioos:station:TABS:G:1,1997-04-04T15:30:00Z,29.5500,-93.4666,2.0,274.4637578,21.07391041,-99999.0,'11111222,11111222,99999999' 
TABS,ioos:station:TABS:G:1,1997-04-04T16:00:00Z,29.5500,-93.4666,2.0,278.8422148,22.31518317,-99999.0,'11111222,11111222,99999999' 
TABS,ioos:station:TABS:G:1,1997-04-04T16:30:00Z,29.5500,-93.4666,2.0,288.2174735,35.76245657,-99999.0,'11111222,11111222,99999999' 
TABS,ioos:station:TABS:G:1,1997-04-04T17:00:00Z,29.5500,-93.4666,2.0,307.9272945,82.17598493,-99999.0,'11111222,11111222,99999999' 
TABS,ioos:station:TABS:G:1,1997-04-04T17:30:00Z,29.5500,-93.4666,2.0,306.7628877,77.92813677,-99999.0,'11111222,11111222,99999999' 
TABS,ioos:station:TABS:G:1,1997-04-04T18:00:00Z,29.5500,-93.4666,2.0,309.8870861,65.05816475,-99999.0,'11111222,11111222,99999999' 